This is the latest recevied weather packets stored in our database for station/object KD4MBW. If no packets are shown the sender has not sent any weather packets the latest 10 day(s).
| Time | Temp. | Humidity | Pressure | Rain* | Wind** | Luminosity | Snow |
|---|---|---|---|---|---|---|---|
| 1777584515 | 26.67° C | 68% | 1010.7 hPa | 0 mm | - | 304 W/m² | - |
| 1777584211 | 26.67° C | 68% | 1010.9 hPa | 0 mm | - | 420 W/m² | - |
| 1777583910 | 26.67° C | 69% | 1010.9 hPa | 0 mm | - | 288 W/m² | - |
| 1777583606 | 26.11° C | 69% | 1010.8 hPa | 0 mm | - | 298 W/m² | - |
| 1777583305 | 26.11° C | 69% | 1010.9 hPa | 0 mm | - | 301 W/m² | - |
| 1777583000 | 26.67° C | 69% | 1010.9 hPa | 0 mm | - | 270 W/m² | - |
| 1777582698 | 26.11° C | 70% | 1011.1 hPa | 0 mm | - | 266 W/m² | - |
| 1777582398 | 26.67° C | 69% | 1010.9 hPa | 0 mm | - | 337 W/m² | - |
| 1777582097 | 26.67° C | 69% | 1011 hPa | 0 mm | - | 403 W/m² | - |
| 1777581791 | 26.11° C | 70% | 1011.2 hPa | 0 mm | - | 295 W/m² | - |
| 1777581490 | 25.56° C | 72% | 1011.3 hPa | 0 mm | - | 335 W/m² | - |
| 1777581185 | 25.56° C | 72% | 1011.2 hPa | 0 mm | - | 231 W/m² | - |
| 1777580880 | 25.56° C | 72% | 1011.4 hPa | 0 mm | - | 282 W/m² | - |
| 1777580575 | 25.56° C | 71% | 1011.2 hPa | 0 mm | - | 288 W/m² | - |
| 1777580271 | 26.11° C | 70% | 1011.2 hPa | 0 mm | - | 407 W/m² | - |
| 1777579967 | 25.56° C | 72% | 1011.1 hPa | 0 mm | - | 556 W/m² | - |
| 1777579657 | 25° C | 73% | 1011.2 hPa | 0 mm | - | 280 W/m² | - |
| 1777579356 | 25° C | 75% | 1011.2 hPa | 0 mm | - | 194 W/m² | - |
| 1777579051 | 25° C | 77% | 1011.1 hPa | 0 mm | - | 193 W/m² | - |
| 1777578741 | 25.56° C | 75% | 1011.3 hPa | 0 mm | - | 184 W/m² | - |
| 1777578441 | 25.56° C | 73% | 1011.2 hPa | 0 mm | - | 213 W/m² | - |
| 1777578137 | 25.56° C | 73% | 1011.4 hPa | 0 mm | - | 190 W/m² | - |
| 1777577833 | 25.56° C | 73% | 1011.5 hPa | 0 mm | - | 139 W/m² | - |
| 1777577529 | 25.56° C | 73% | 1011.4 hPa | 0 mm | - | 137 W/m² | - |
| 1777577226 | 25.56° C | 73% | 1011.8 hPa | 0 mm | - | 131 W/m² | - |
* Rain latest hour (hover to see other rain measurements)
** Current wind speed in m/s (hover to see current wind gust speed)